{"data":{"norad_id":49332,"intl_designator":"2021-095A","name":"SES-17","alt_names":[],"object_type":"PAYLOAD","status":"ACTIVE","operator":null,"country":"SES","launch_date":"2021-10-24","launch_site_code":"FRGUI","launch_vehicle":null,"mission":null,"orbit_class":"UNKNOWN","rcs_meters":null,"size_class":null,"mass_kg":null,"dimensions":null,"purposes":["comms"],"wikipedia_slug":null,"has_3d_model":false,"image_url":null,"decayed_at":null,"tle_current":{"epoch":"2026-09-20T03:30:38.801952Z","epoch_age_seconds":45021,"freshness":"FRESH","line1":"1 49332U 21095A   26263.14628243 -.00000276  00000+0  00000+0 0  9991","line2":"2 49332   0.0357  34.6440 0001056 129.7613 180.2095  1.00269876 18801","mean_motion":1.00269876,"eccentricity":0.0001056,"inclination_deg":0.0357,"raan_deg":34.644,"arg_perigee_deg":129.7613,"mean_anomaly_deg":180.2095,"bstar":0,"rev_number":1880,"period_min":1436.1242453317,"perigee_km":35782.677479471,"apogee_km":35791.582783889,"semimajor_km":42165.26713168,"source":"CELESTRAK","updated_at":"2026-09-20T09:00:35.687580Z"}}}